Regional Weather Roundup
Issued by NWS

Home | Current Version | Previous Version | Text Only | Print | Product List | Glossary Off
Versions: 1 2 3 4 5 6 7 8 9 10 11 12 13 14 15 16 17 18 19 20 21 22 23 24 25 26 27 28 29 30 31 32 33 34 35 36 37 38 39 40 41 42 43 44 45 46 47 48 49 50

000
ASUS43 KOAX 210802
RWRNE

WEATHER ROUNDUP FOR NEBRASKA
NATIONAL WEATHER SERVICE OMAHA NE
200 AM CST TUE NOV 21 2017

NOTES: SATELLITE DATA IS BEING USED TO AUGMENT CLOUD COVER ABOVE
       12000 FEET.
       "FAIR" INDICATES FEW OR NO CLOUDS BELOW 12,000 FEET WITH NO
       SIGNIFICANT WEATHER AND/OR OBSTRUCTIONS TO VISIBILITY.


NEZ001>004-019>022-054>056-210900-
NEBRASKA PANHANDLE

CITY           SKY/WX    TMP DP  RH WIND       PRES   REMARKS
SCOTTSBLUFF    PTCLDY    51  27  39 W18G29    29.87R
ALLIANCE       PTCLDY    47  27  45 NW15      29.84R
CHADRON        MOCLDY    40  27  59 NE16      29.93R WCI  31
GORDON         CLOUDY    39  26  59 N18G25    29.89R WCI  30
KIMBALL        CLOUDY    50  21  32 NW10G33   29.87R
SIDNEY         CLOUDY    43  18  36 W12       29.87R
$$

NEZ057>060-069>072-079>082-210900-
SOUTHWEST NEBRASKA

CITY           SKY/WX    TMP DP  RH WIND       PRES   REMARKS
NORTH PLATTE   MOCLDY    32  27  81 CALM      29.81R
IMPERIAL       CLOUDY    55  27  34 NW12      29.83R
LEXINGTON      CLOUDY    38  28  66 NW5       29.79R WCI  35
MCCOOK         MOCLDY    47  26  44 CALM      29.81R
OGALLALA       CLOUDY    47  24  40 SW7       29.84R
$$

NEZ005>010-023>029-035>040-094-210900-
NORTH CENTRAL NEBRASKA

CITY           SKY/WX    TMP DP  RH WIND       PRES   REMARKS
VALENTINE      CLOUDY    42  27  55 NE10      29.88R
AINSWORTH      CLOUDY    40  28  61 N15       29.86R WCI  32
BROKEN BOW     CLOUDY    36  27  69 CALM      29.78R
O`NEILL        CLOUDY    42  27  55 N12G18    29.83R
ORD            PTCLDY    36  26  67 NW12      29.78R WCI  28
THEDFORD       CLOUDY    35  27  71 W3        29.83R
$$

NEZ041-046>049-061>064-073>077-083>087-210900-
SOUTH CENTRAL NEBRASKA

CITY           SKY/WX    TMP DP  RH WIND       PRES   REMARKS
GRAND ISLAND   PTCLDY    36  26  67 W7        29.77R WCI  30
AURORA         CLOUDY    32  23  70 NW7       29.77R WCI  26
HASTINGS       PTCLDY    39  23  52 N5        29.77R
HEBRON         MOCLDY    39  28  64 W3        29.75S
HOLDREGE       CLOUDY    44  28  53 NW7       29.78R
KEARNEY        CLOUDY    41  25  53 NW7       29.78R
$$

NEZ011>018-030>034-042>045-210900-
NORTHEAST NEBRASKA

CITY           SKY/WX    TMP DP  RH WIND       PRES   REMARKS
NORFOLK        CLOUDY    43  26  51 N20       29.77R
ALBION         CLOUDY    37  26  67 NW9       29.78R WCI  30
BLAIR          PTCLDY    46  26  46 N10       29.72R
COLUMBUS       CLOUDY    35  25  66 N7        29.77R WCI  29
FREMONT        CLOUDY    35  27  71 CALM      29.74R
TEKAMAH        CLOUDY    33  25  72 N9        29.75R WCI  25
WAYNE          CLOUDY    42  21  42 N14G21    29.79R
$$

NEZ050>053-065>068-078-088>093-210900-
SOUTHEAST NEBRASKA

CITY           SKY/WX    TMP DP  RH WIND       PRES   REMARKS
LINCOLN        CLEAR     32  25  75 CALM      29.76R
OMAHA EPPLEY   MOCLDY    35  27  72 NW3       29.73R
BEATRICE       CLOUDY    32  25  76 W3        29.74S
FALLS CITY     CLOUDY    44  28  53 W6        29.72R
NEBRASKA CITY  PTCLDY    41  28  60 NW10      29.73S
PLATTSMOUTH    PTCLDY    40  29  65 W10       29.73R WCI  33
$$

NEZ044-045-051>053-067-210900-
OMAHA AREA

CITY           SKY/WX    TMP DP  RH WIND       PRES   REMARKS
OMAHA EPPLEY   MOCLDY    35  27  72 NW3       29.73R
BLAIR          PTCLDY    46  26  46 N10       29.72R
FREMONT        CLOUDY    35  27  71 CALM      29.74R
MILLARD        CLOUDY    37  30  76 CALM      29.74R
OFFUTT AFB     PTCLDY    33  28  79 NW5       29.72R WCI  29
PLATTSMOUTH    PTCLDY    40  29  65 W10       29.73R WCI  33
WAHOO          FAIR      36  26  66 N7        29.74R WCI  31
$$




USA.gov is the U.S. government's official web portal to all federal, state and local government web resources and services.